Regional Weather Roundup
Issued by NWS Newport/Morehead, NC

Current Version | Previous Version | Graphics & Text | Print | Product List | Glossary Off
Versions: 1 2 3 4 5 6 7 8 9 10 11 12 13 14 15 16 17 18 19 20 21 22 23 24 25 26 27 28 29 30 31 32 33 34 35 36 37 38 39 40 41 42 43 44 45 46 47 48 49 50

000
ASUS42 KMHX 110413
RWRMHX
WEATHER ROUNDUP FOR EASTERN NORTH CAROLINA
NATIONAL WEATHER SERVICE NEWPORT/MOREHEAD CITY NC
1100 PM EST WED FEB 10 2016

NOTE: "FAIR" INDICATES FEW OR NO CLOUDS BELOW 12,000 FEET
WITH NO SIGNIFICANT WEATHER AND/OR OBSTRUCTIONS TO VISIBILITY

NCZ015>017-031-032-045>047-102-103-110500-
NORTH COAST

CITY           SKY/WX    TMP DP  RH WIND       PRES   REMARKS
EDENTON        PTCLDY    33  11  41 NW17G24   30.01R
ELIZABETH CITY CLOUDY    31  12  45 NW18G31   29.99R WCI  19
KITTY HAWK     CLOUDY    36  18  47 NW15G28   29.94R
MANTEO         CLOUDY    35  18  48 NW15G28   29.96R

$$

NCZ045>047-081-094-103-104-110500-
CENTRAL COAST

CITY           SKY/WX    TMP DP  RH WIND       PRES   REMARKS
FRISCO         CLOUDY    38  21  50 W17G30    29.97R
SWANQUARTER      N/A     36 N/A N/A NW12G26   29.97R

$$

NCZ095-097-098-100-101-110500-
SOUTHERN COAST

CITY           SKY/WX    TMP DP  RH WIND       PRES   REMARKS
BEAUFORT       CLEAR     35  17  47 W17       30.04R
CEDAR ISLAND   NOT AVBL
JACKSONVILLE   CLEAR     31  17  56 W7        30.06R
PINEY ISLAND   CLEAR    N/A N/A N/A W23G30    30.02R
WILMINGTON     CLEAR     34  17  50 W12       30.08R


$$

NCZ011>013-027>030-043-044-078>080-089-090>093-098-110500-
COASTAL PLAIN

CITY           SKY/WX    TMP DP  RH WIND       PRES   REMARKS
AHOSKIE        PTCLDY    28   8  42 NW5       30.04R
CLINTON        CLEAR     31  15  52 W5        30.08R
ELIZABETHTOWN  CLEAR     33  14  47 W6        30.08R
GOLDSBORO      CLEAR     32  10  40 W6        30.04
GREENVILLE     CLEAR     32  10  40 NW7       30.06R
HAVELOCK       CLEAR     33  17  51 W14       30.05R
KENANSVILLE    CLEAR     30  15  54 CALM      30.07R
KINSTON        CLEAR     31  11  44 NW5       30.05R
NEW BERN       CLEAR     33  15  47 W8        30.05R
RICHLANDS      CLEAR     30  14  51 SW7       30.06R
ROCKY MOUNT    CLEAR     29   8  41 NW12      30.04R WCI  19
WASHINGTON     CLEAR     31  10  40 NW9G21    30.03R
WHITEVILLE     CLEAR     32  13  45 SW3       30.09R

$$

AMZ130-135-150-152-154-156-158-170-250-252-270-ANZ085-086-088-633-658-670-110500-
MARINE OBSERVATIONS

STATION/POSITION TIME  TEMP    WIND        PRES    WAVE   SWELL
                       AIR SEA DIR/SP/G            HT/PER HT/PER
                 (UTC) (F)     (DEG/KT/KT) (MB)    (FT/S) (FT/S)
CHESAPEAKE LIGHT 0400   33     280/ 30/ 34 1013.7
64 E VA BEACH    0350   40 49  280/ 23/ 31 1011.3    7/ 5   2/10
DUCK             0300   38                 1012.8
2 E DUCK         0311      44                N/A     3/13   2/13
OREGON INLET     0300   38 44              1013.4
13E OREGON INLT  0400      45                N/A     4/14   2/14
HATTERAS CG      0300   40 49              1013.7
DIAMOND BUOY     0350   43 72  280/ 25/ 31 1014.2    6/ 5   3/13
CAPE LOOKOUT     NOT AVBL
BEAUFORT LAB     0300   36 47              1015.4
30 SE NEW RVR IN 0308   42 59              1016.5
30 SE NEW RVR IN 0325      59                N/A     8/ 8   2/14
27 SE WRIGHTSVLE 0308   42 61  300/ 23/ 33 1016.0
5 SE WRIGHTSVLE  NOT AVBL
225 S CAPE HAT   0350   54 68  280/ 29/ 35   N/A    17/10  11/10
41 SE CHARLESTON 0350   45 63  270/ 29/ 35 1019.4    8/ 8   2/13

$$



USA.gov is the U.S. government's official web portal to all federal, state and local government web resources and services.